Location: Gouy
(50.0008°N, 3.2556°E)
Time: 09:11:14
(UTC+00:00)

Cosmos 1782 Rocket - Pass Details

Date: 17 August 2024
Orbit: 603 x 627 km, 82.5° (Epoch: 07 September)

Event Time Altitude Azimuth Distance (km) Brightness Sun altitude
Exits shadow 03:39:19 - 186° (S) 2,842 6.6 -9.5°
Reaches altitude 10° 03:41:24 10° 186° (S) 1,990 5.8 -9.2°
Maximum altitude 03:45:49 85° 100° (E) 636 3.7 -8.6°
Drops below altitude 10° 03:50:18 10° 11° (N) 2,017 6.9 -8.0°
Sets 03:52:33 0° 11° (N) 2,930 7.7 -7.7°
